Regional Weather Roundup
Issued by NWS Newport/Morehead, NC

Current Version | Previous Version | Graphics & Text | Print | Product List | Glossary Off
Versions: 1 2 3 4 5 6 7 8 9 10 11 12 13 14 15 16 17 18 19 20 21 22 23 24 25 26 27 28 29 30 31 32 33 34 35 36 37 38 39 40 41 42 43 44 45 46 47 48 49 50

000
ASUS42 KMHX 012022
RWRMHX
WEATHER ROUNDUP FOR EASTERN NORTH CAROLINA
NATIONAL WEATHER SERVICE NEWPORT/MOREHEAD CITY NC
400 PM EDT MON SEP 01 2014

NOTE: "FAIR" INDICATES FEW OR NO CLOUDS BELOW 12,000 FEET
WITH NO SIGNIFICANT WEATHER AND/OR OBSTRUCTIONS TO VISIBILITY

NCZ015>017-031-032-045>047-102-103-012100-
NORTH COAST

CITY           SKY/WX    TMP DP  RH WIND       PRES   REMARKS
EDENTON        MOSUNNY   91  73  53 W8        30.02S
ELIZABETH CITY MOSUNNY   89  74  60 SW14      30.01F
KITTY HAWK     PTCLDY    88  76  66 S8        30.01F
MANTEO         MOSUNNY   86  77  74 S16       30.03S

$$

NCZ045>047-081-094-103-104-012100-
CENTRAL COAST

CITY           SKY/WX    TMP DP  RH WIND       PRES   REMARKS
FRISCO         SUNNY     84  76  76 SW15      30.07F
SWANQUARTER      N/A     90 N/A N/A S12       30.00S

$$

NCZ095-097-098-100-101-012100-
SOUTHERN COAST

CITY           SKY/WX    TMP DP  RH WIND       PRES   REMARKS
BEAUFORT       MOSUNNY   86  76  71 S15       30.06F
CEDAR ISLAND     N/A     88 N/A N/A S8G17     30.09S
JACKSONVILLE   MOSUNNY   87  76  69 S12       30.05F
NEWPORT        NOT AVBL
PINEY ISLAND   CLEAR     91  75  59 S9        30.05F HX 101
WILMINGTON     SUNNY     89  75  63 S10       30.05F


$$

NCZ011>013-027>030-043-044-078>080-089-090>093-098-012100-
COASTAL PLAIN

CITY           SKY/WX    TMP DP  RH WIND       PRES   REMARKS
AHOSKIE        MOSUNNY   90  74  59 CALM      30.01F
CLINTON        MOSUNNY   93  73  52 CALM      30.04F HX 102
ELIZABETHTOWN  MOSUNNY   94  71  47 SE5       30.04F HX 101
GOLDSBORO      MOSUNNY   93  74  53 VRB3      30.02F HX 104
GREENVILLE     PTSUNNY   93  72  49 W5        30.05F HX 100
HAVELOCK       PTSUNNY   90  75  61 S10       30.06F HX 100
KENANSVILLE    PTSUNNY   90  71  53 CALM      30.05F
KINSTON        PTSUNNY   93  68  43 W3        30.04F
NEW BERN       MOSUNNY   94  73  50 S6        30.05F HX 103
RICHLANDS      PTSUNNY   93  72  49 S8        30.04F HX 100
ROANOKE RAPIDS NOT AVBL
ROCKY MOUNT    MOSUNNY   93  73  52 SW7       30.03F HX 102
WASHINGTON     MOSUNNY   91  73  53 W7        30.03F
WHITEVILLE     MOSUNNY   92  71  49 CALM      30.04F

$$

AMZ130-135-150-152-154-156-158-170-250-252-270-ANZ085-086-088-633-658-670-012100-
MARINE OBSERVATIONS

STATION/POSITION TIME  TEMP    WIND        PRES    WAVE   SWELL
                       AIR SEA DIR/SP/G            HT/PER HT/PER
                 (UTC) (F)     (DEG/KT/KT) (MB)    (FT/S) (FT/S)
CHESAPEAKE LIGHT 2000   82     180/ 19/ 21 1015.8
BUOY 44014       2000   79 78  190/ 12/ 14 1016.5    3/ 9   2/ 9
DUCK             2000   84 75  150/  8/  9 1015.8
2E DUCK          2000                        N/A     2/ 9   2/14
OREGON INLET     2000   83 84  190/ 18/ 21 1017.1
BUOY 44095       2000      80                N/A     2/ 9   2/11
20E OREGON INLET NOT AVBL
HATTERAS CG      2000   85 84  190/  8/ 13 1018.5
DIAMOND BUOY     2000   83     200/ 14/ 16 1018.1    3/ 8   2/ 8
CAPE LOOKOUT     2000   83     200/ 11/ 13 1018.1
BEAUFORT LAB     2000   83 83  200/ 11/ 14 1017.5
30 SE NEW RIVER  2000   82 83  200/ 10/ 10 1018.6    2/ 9   2/ 9
5 SE WRIGHTSVILL 2000   79 84  180/  4/  6   N/A
BUOY 41002       1926   82 85  220/  6/  8 1020.5    3/ 9   3/ 9
BUOY 41004       2000   83 85  170/  6/  8 1018.4    2/ 9   2/ 9

$$


USA.gov is the U.S. government's official web portal to all federal, state and local government web resources and services.